Tracking 35280 objects as of 7-Sep-2026
HD Live streaming from Space Station
objects crossing your sky now

UMBRA-2001


UMBRA-2001 is no longer on orbit
UMBRA-2001 is classified as:


NORAD ID: 48906
Int'l Code: 2021-059AD
Launch date: June 30, 2021
Source: United States (US)
Launch site: AIR FORCE EASTERN TEST RANGE (AFETR)
Decay date: 2024-04-30

Uplink (MHz):
Downlink (MHz): 2254.000
Beacon (MHz):
Mode: FM
Call sign:
Status: Reentered

Your satellite tracking list
Your tracking list is empty




NASA's NSSDC Master Catalog

Two Line Element Set (TLE):
1 48906U 21059AD  24121.62758556  .29722499  26589-5  18310-2 0  9992
2 48906  97.5682 263.1127 0014831 247.0672 239.4234 16.40337929157692
Source of the keplerian elements: AFSPC